| time (UTC) | temp C | wind direction | speed KPH | gust KPH | rain 1hr cm | rain 24hr cm | rain mn cm | humidity % | barometer mb |
| 20260506185553 | 28 | 0 | 0.0 | 11.3 | 0.00 | 0.00 | 0.00 | 82 | 1010.0 |
| 20260506185053 | 28 | 148 | 3.2 | 11.3 | 0.00 | 0.00 | 0.00 | 82 | 1010.1 |
| 20260506184555 | 28 | 0 | 1.6 | 9.7 | 0.00 | 0.00 | 0.00 | 84 | 1010.1 |
| 20260506184054 | 28 | 0 | 1.6 | 11.3 | 0.00 | 0.00 | 0.00 | 83 | 1010.2 |
| 20260506183555 | 28 | 142 | 3.2 | 11.3 | 0.00 | 0.00 | 0.00 | 84 | 1010.2 |
| 20260506183054 | 28 | 0 | 0.0 | 8.0 | 0.00 | 0.00 | 0.00 | 84 | 1010.1 |
| 20260506182554 | 28 | 0 | 0.0 | 6.4 | 0.00 | 0.00 | 0.00 | 85 | 1010.2 |
| 20260506182054 | 27 | 0 | 0.0 | 8.0 | 0.00 | 0.00 | 0.00 | 87 | 1010.2 |
| 20260506181558 | 27 | 85 | 1.6 | 8.0 | 0.00 | 0.00 | 0.00 | 86 | 1010.3 |
| 20260506181052 | 27 | 75 | 1.6 | 8.0 | 0.00 | 0.00 | 0.00 | 87 | 1010.5 |
| 20260506180552 | 27 | 0 | 1.6 | 8.0 | 0.00 | 0.00 | 0.00 | 89 | 1010.5 |
| 20260506180057 | 26 | 84 | 1.6 | 6.4 | 0.00 | 0.00 | 0.00 | 89 | 1010.6 |
| 20260506175555 | 26 | 86 | 0.0 | 6.4 | 0.00 | 0.00 | 0.00 | 89 | 1010.7 |
| 20260506175051 | 26 | 71 | 0.0 | 6.4 | 0.00 | 0.00 | 0.00 | 89 | 1010.8 |
| 20260506174553 | 26 | 0 | 0.0 | 0.0 | 0.00 | 0.00 | 0.00 | 89 | 1010.8 |
| 20260506174051 | 26 | 0 | 0.0 | 4.8 | 0.00 | 0.00 | 0.00 | 89 | 1011.0 |
| 20260506173551 | 26 | 0 | 0.0 | 4.8 | 0.00 | 0.00 | 0.00 | 89 | 1011.0 |
| 20260506173124 | 26 | 96 | 0.0 | 4.8 | 0.00 | 0.00 | 0.00 | 88 | 1011.2 |
| 20260506172551 | 26 | 96 | 0.0 | 4.8 | 0.00 | 0.00 | 0.00 | 88 | 1011.3 |
| 20260506172100 | 26 | 0 | 1.6 | 4.8 | 0.00 | 0.00 | 0.00 | 88 | 1011.3 |
| 20260506171610 | 26 | 0 | 0.0 | 4.8 | 0.00 | 0.00 | 0.00 | 88 | 1011.4 |
| 20260506171055 | 26 | 0 | 0.0 | 6.4 | 0.00 | 0.00 | 0.00 | 88 | 1011.4 |
| 20260506170552 | 26 | 0 | 1.6 | 6.4 | 0.00 | 0.00 | 0.00 | 87 | 1011.4 |
| 20260506170055 | 26 | 93 | 0.0 | 6.4 | 0.00 | 0.00 | 0.00 | 87 | 1011.5 |
| 20260506165552 | 26 | 87 | 1.6 | 4.8 | 0.00 | 0.00 | 0.00 | 87 | 1011.6 |
| 20260506165052 | 26 | 0 | 0.0 | 4.8 | 0.00 | 0.00 | 0.00 | 87 | 1011.6 |
| 20260506164601 | 26 | 0 | 0.0 | 6.4 | 0.00 | 0.00 | 0.00 | 86 | 1011.5 |
| 20260506164051 | 26 | 0 | 0.0 | 6.4 | 0.00 | 0.00 | 0.00 | 86 | 1011.6 |
| 20260506163552 | 26 | 0 | 1.6 | 6.4 | 0.00 | 0.00 | 0.00 | 86 | 1011.5 |
| 20260506163106 | 26 | 0 | 0.0 | 4.8 | 0.00 | 0.00 | 0.00 | 86 | 1011.5 |
| 20260506162551 | 26 | 0 | 0.0 | 4.8 | 0.00 | 0.00 | 0.00 | 86 | 1011.5 |
| 20260506162051 | 26 | 0 | 0.0 | 9.7 | 0.00 | 0.00 | 0.00 | 86 | 1011.4 |
| 20260506161629 | 26 | 0 | 1.6 | 9.7 | 0.00 | 0.00 | 0.00 | 86 | 1011.4 |
| 20260506161055 | 26 | 96 | 1.6 | 9.7 | 0.00 | 0.00 | 0.00 | 86 | 1011.2 |
| 20260506160551 | 26 | 0 | 1.6 | 11.3 | 0.00 | 0.00 | 0.00 | 86 | 1011.0 |
| 20260506160108 | 26 | 143 | 1.6 | 12.9 | 0.00 | 0.00 | 0.00 | 87 | 1010.9 |
| 20260506155551 | 26 | 114 | 1.6 | 12.9 | 0.00 | 0.00 | 0.00 | 87 | 1010.7 |
| 20260506155053 | 26 | 0 | 1.6 | 8.0 | 0.00 | 0.00 | 0.00 | 87 | 1010.6 |
| 20260506154555 | 26 | 135 | 0.0 | 9.7 | 0.00 | 0.00 | 0.00 | 87 | 1010.7 |
| 20260506154053 | 26 | 0 | 1.6 | 9.7 | 0.00 | 0.00 | 0.00 | 86 | 1010.6 |
| 20260506153554 | 26 | 0 | 1.6 | 9.7 | 0.00 | 0.00 | 0.00 | 86 | 1010.5 |
| 20260506153058 | 26 | 99 | 1.6 | 8.0 | 0.00 | 0.00 | 0.00 | 87 | 1010.5 |
| 20260506152551 | 26 | 120 | 0.0 | 8.0 | 0.00 | 0.00 | 0.00 | 87 | 1010.5 |
| 20260506152053 | 26 | 0 | 0.0 | 8.0 | 0.00 | 0.00 | 0.00 | 87 | 1010.5 |
| 20260506151555 | 26 | 111 | 0.0 | 4.8 | 0.00 | 0.00 | 0.00 | 88 | 1010.4 |
| 20260506151052 | 26 | 0 | 0.0 | 3.2 | 0.00 | 0.00 | 0.00 | 88 | 1010.5 |
| 20260506150553 | 26 | 153 | 0.0 | 9.7 | 0.00 | 0.00 | 0.00 | 88 | 1010.6 |
| 20260506150059 | 26 | 0 | 0.0 | 9.7 | 0.00 | 0.00 | 0.00 | 88 | 1010.6 |
| 20260506145556 | 26 | 164 | 0.0 | 8.0 | 0.00 | 0.00 | 0.00 | 88 | 1010.4 |
| 20260506145052 | 26 | 169 | 1.6 | 8.0 | 0.00 | 0.00 | 0.00 | 88 | 1010.1 |
| 20260506144554 | 26 | 165 | 3.2 | 12.9 | 0.00 | 0.00 | 0.00 | 89 | 1010.1 |
| 20260506144051 | 26 | 171 | 3.2 | 14.5 | 0.00 | 0.00 | 0.00 | 90 | 1010.1 |
| 20260506143552 | 25 | 191 | 4.8 | 14.5 | 0.00 | 0.00 | 0.00 | 90 | 1010.0 |
| 20260506143055 | 25 | 122 | 3.2 | 9.7 | 0.00 | 0.00 | 0.00 | 90 | 1010.0 |
| 20260506142553 | 25 | 146 | 3.2 | 11.3 | 0.00 | 0.00 | 0.00 | 91 | 1009.9 |
| 20260506142054 | 25 | 188 | 1.6 | 11.3 | 0.00 | 0.00 | 0.00 | 91 | 1009.9 |
| 20260506141557 | 25 | 178 | 1.6 | 12.9 | 0.00 | 0.00 | 0.00 | 91 | 1009.7 |
| 20260506141052 | 25 | 128 | 3.2 | 12.9 | 0.00 | 0.00 | 0.00 | 91 | 1009.5 |
| 20260506140552 | 25 | 142 | 3.2 | 12.9 | 0.00 | 0.00 | 0.00 | 91 | 1009.5 |
| 20260506140058 | 25 | 149 | 4.8 | 12.9 | 0.00 | 0.00 | 0.00 | 92 | 1009.5 |
| 20260506135551 | 25 | 159 | 3.2 | 12.9 | 0.00 | 0.00 | 0.00 | 92 | 1009.4 |
| 20260506135053 | 25 | 160 | 4.8 | 12.9 | 0.00 | 0.00 | 0.00 | 92 | 1009.4 |
| 20260506134555 | 25 | 173 | 4.8 | 12.9 | 0.00 | 0.00 | 0.00 | 92 | 1009.6 |
| 20260506134053 | 25 | 150 | 4.8 | 14.5 | 0.00 | 0.00 | 0.00 | 92 | 1009.5 |
| 20260506133554 | 25 | 172 | 3.2 | 14.5 | 0.00 | 0.00 | 0.00 | 92 | 1009.7 |
| 20260506133052 | 25 | 150 | 4.8 | 14.5 | 0.00 | 0.00 | 0.00 | 92 | 1009.8 |
| 20260506132553 | 25 | 152 | 1.6 | 9.7 | 0.00 | 0.00 | 0.00 | 93 | 1009.7 |
| 20260506132053 | 25 | 136 | 3.2 | 9.7 | 0.00 | 0.00 | 0.00 | 92 | 1009.8 |
| 20260506131602 | 24 | 167 | 3.2 | 9.7 | 0.00 | 0.00 | 0.00 | 93 | 1009.8 |
| 20260506131053 | 24 | 173 | 3.2 | 9.7 | 0.00 | 0.00 | 0.00 | 93 | 1009.7 |
| 20260506130553 | 24 | 152 | 3.2 | 9.7 | 0.00 | 0.00 | 0.00 | 93 | 1009.7 |
| 20260506130131 | 24 | 150 | 1.6 | 8.0 | 0.00 | 0.00 | 0.00 | 93 | 1009.5 |
| 20260506125553 | 24 | 162 | 3.2 | 11.3 | 0.00 | 0.00 | 0.00 | 93 | 1009.5 |
| 20260506125053 | 24 | 150 | 1.6 | 11.3 | 0.00 | 0.00 | 0.00 | 93 | 1009.5 |
| 20260506124559 | 24 | 149 | 3.2 | 11.3 | 0.00 | 0.00 | 0.00 | 93 | 1009.6 |
| 20260506124053 | 24 | 178 | 1.6 | 8.0 | 0.00 | 0.00 | 0.00 | 93 | 1009.7 |
| 20260506123553 | 24 | 172 | 1.6 | 8.0 | 0.00 | 0.00 | 0.00 | 93 | 1009.5 |
| 20260506123057 | 24 | 173 | 0.0 | 8.0 | 0.00 | 0.00 | 0.00 | 93 | 1009.5 |
| 20260506122554 | 24 | 173 | 1.6 | 11.3 | 0.00 | 0.00 | 0.00 | 93 | 1009.4 |
| 20260506122053 | 24 | 206 | 1.6 | 11.3 | 0.00 | 0.00 | 0.00 | 93 | 1009.5 |
| 20260506121559 | 24 | 192 | 3.2 | 11.3 | 0.00 | 0.00 | 0.00 | 93 | 1009.5 |
| 20260506121052 | 24 | 148 | 3.2 | 11.3 | 0.00 | 0.00 | 0.00 | 93 | 1009.5 |
| 20260506120552 | 24 | 174 | 4.8 | 14.5 | 0.00 | 0.00 | 0.00 | 93 | 1009.4 |
| 20260506120107 | 24 | 192 | 4.8 | 16.1 | 0.00 | 0.00 | 0.00 | 93 | 1009.4 |
| 20260506115553 | 24 | 152 | 8.0 | 16.1 | 0.00 | 0.00 | 0.00 | 93 | 1009.3 |
| 20260506115052 | 24 | 173 | 3.2 | 11.3 | 0.00 | 0.00 | 0.00 | 93 | 1009.3 |
| 20260506114553 | 24 | 0 | 3.2 | 12.9 | 0.00 | 0.00 | 0.00 | 93 | 1009.3 |
| 20260506114053 | 24 | 150 | 3.2 | 14.5 | 0.00 | 0.00 | 0.00 | 93 | 1009.2 |
| 20260506113553 | 24 | 169 | 3.2 | 14.5 | 0.00 | 0.00 | 0.00 | 93 | 1009.1 |
| 20260506113058 | 24 | 157 | 6.4 | 14.5 | 0.00 | 0.00 | 0.00 | 93 | 1009.0 |
| 20260506112553 | 24 | 182 | 4.8 | 14.5 | 0.00 | 0.00 | 0.00 | 93 | 1009.1 |
| 20260506112052 | 24 | 178 | 4.8 | 14.5 | 0.00 | 0.00 | 0.00 | 93 | 1009.1 |
| 20260506111555 | 24 | 153 | 6.4 | 16.1 | 0.00 | 0.00 | 0.00 | 93 | 1009.1 |
| 20260506111052 | 24 | 188 | 6.4 | 16.1 | 0.00 | 0.00 | 0.00 | 93 | 1009.1 |
| 20260506110553 | 24 | 197 | 8.0 | 16.1 | 0.00 | 0.00 | 0.00 | 93 | 1009.0 |
| 20260506110100 | 24 | 171 | 6.4 | 16.1 | 0.00 | 0.00 | 0.00 | 93 | 1008.8 |
| 20260506105553 | 24 | 196 | 6.4 | 14.5 | 0.00 | 0.00 | 0.00 | 93 | 1008.7 |
| 20260506105052 | 24 | 183 | 6.4 | 14.5 | 0.00 | 0.00 | 0.00 | 93 | 1008.7 |
| 20260506104557 | 24 | 159 | 6.4 | 19.3 | 0.00 | 0.00 | 0.00 | 93 | 1008.9 |
| 20260506104051 | 23 | 185 | 6.4 | 20.9 | 0.00 | 0.00 | 0.00 | 93 | 1008.6 |
| 20260506103551 | 23 | 179 | 6.4 | 20.9 | 0.00 | 0.00 | 0.00 | 93 | 1008.5 |
| 20260506103059 | 23 | 161 | 6.4 | 17.7 | 0.00 | 0.00 | 0.00 | 93 | 1008.5 |
| 20260506102551 | 24 | 181 | 8.0 | 19.3 | 0.00 | 0.00 | 0.00 | 93 | 1008.5 |
| 20260506102053 | 24 | 181 | 9.7 | 19.3 | 0.00 | 0.00 | 0.00 | 93 | 1008.5 |
| 20260506101600 | 24 | 163 | 6.4 | 16.1 | 0.00 | 0.00 | 0.00 | 93 | 1008.3 |
| 20260506101053 | 24 | 162 | 4.8 | 16.1 | 0.00 | 0.00 | 0.00 | 93 | 1008.4 |
| 20260506100551 | 23 | 175 | 6.4 | 16.1 | 0.00 | 0.00 | 0.00 | 93 | 1008.3 |
| 20260506100114 | 23 | 194 | 6.4 | 14.5 | 0.00 | 0.00 | 0.00 | 93 | 1008.3 |
| 20260506095556 | 23 | 193 | 4.8 | 14.5 | 0.00 | 0.00 | 0.00 | 93 | 1008.3 |
| 20260506095053 | 23 | 193 | 4.8 | 14.5 | 0.00 | 0.00 | 0.00 | 93 | 1008.5 |
| 20260506094553 | 23 | 175 | 4.8 | 14.5 | 0.00 | 0.00 | 0.00 | 93 | 1008.5 |
| 20260506094051 | 23 | 173 | 3.2 | 11.3 | 0.00 | 0.00 | 0.00 | 93 | 1008.3 |
| 20260506093551 | 23 | 177 | 4.8 | 12.9 | 0.00 | 0.00 | 0.00 | 93 | 1008.4 |
| 20260506093053 | 23 | 179 | 6.4 | 14.5 | 0.00 | 0.00 | 0.00 | 93 | 1008.3 |
| 20260506092554 | 23 | 173 | 4.8 | 16.1 | 0.00 | 0.00 | 0.00 | 93 | 1008.3 |
| 20260506092055 | 23 | 179 | 8.0 | 19.3 | 0.00 | 0.00 | 0.00 | 93 | 1008.3 |
| 20260506091555 | 23 | 169 | 6.4 | 22.5 | 0.00 | 0.00 | 0.00 | 93 | 1008.2 |
| 20260506091053 | 23 | 163 | 8.0 | 22.5 | 0.00 | 0.00 | 0.00 | 93 | 1008.3 |
| 20260506090553 | 23 | 190 | 6.4 | 17.7 | 0.00 | 0.00 | 0.00 | 93 | 1008.2 |
| 20260506090054 | 23 | 169 | 8.0 | 17.7 | 0.00 | 0.00 | 0.00 | 93 | 1008.2 |
| 20260506085553 | 23 | 212 | 8.0 | 16.1 | 0.00 | 0.00 | 0.00 | 93 | 1008.1 |
| 20260506085053 | 23 | 184 | 8.0 | 16.1 | 0.00 | 0.00 | 0.00 | 92 | 1008.1 |
| 20260506084620 | 23 | 160 | 8.0 | 14.5 | 0.00 | 0.00 | 0.00 | 92 | 1008.3 |
| 20260506084053 | 23 | 175 | 8.0 | 14.5 | 0.00 | 0.00 | 0.00 | 92 | 1008.4 |
| 20260506083553 | 23 | 173 | 6.4 | 16.1 | 0.00 | 0.00 | 0.00 | 92 | 1008.2 |
| 20260506083055 | 23 | 154 | 6.4 | 16.1 | 0.00 | 0.00 | 0.00 | 92 | 1008.2 |
| 20260506082553 | 24 | 128 | 6.4 | 12.9 | 0.00 | 0.00 | 0.00 | 92 | 1008.3 |
| 20260506082052 | 24 | 157 | 3.2 | 11.3 | 0.00 | 0.00 | 0.00 | 92 | 1008.5 |
| 20260506081556 | 24 | 184 | 4.8 | 14.5 | 0.00 | 0.00 | 0.00 | 92 | 1008.4 |
| 20260506081053 | 24 | 192 | 4.8 | 14.5 | 0.00 | 0.00 | 0.00 | 92 | 1008.4 |
| 20260506080555 | 24 | 159 | 4.8 | 19.3 | 0.00 | 0.00 | 0.00 | 92 | 1008.3 |
| 20260506073057 | 24 | 180 | 4.8 | 11.3 | 0.00 | 0.00 | 0.00 | 92 | 1009.0 |
| 20260506072553 | 24 | 161 | 3.2 | 11.3 | 0.00 | 0.00 | 0.00 | 92 | 1009.0 |
| 20260506072052 | 24 | 152 | 1.6 | 11.3 | 0.00 | 0.00 | 0.00 | 92 | 1009.1 |
| 20260506071559 | 24 | 182 | 3.2 | 12.9 | 0.00 | 0.00 | 0.00 | 92 | 1009.1 |
| 20260506071052 | 24 | 184 | 4.8 | 12.9 | 0.00 | 0.00 | 0.00 | 91 | 1009.0 |
| 20260506070553 | 24 | 175 | 4.8 | 14.5 | 0.00 | 0.00 | 0.00 | 92 | 1009.0 |
| 20260506062052 | 24 | 179 | 6.4 | 14.5 | 0.00 | 0.00 | 0.00 | 91 | 1009.3 |
| 20260506061553 | 24 | 170 | 6.4 | 17.7 | 0.00 | 0.00 | 0.00 | 91 | 1009.4 |
| 20260506061053 | 24 | 196 | 8.0 | 19.3 | 0.00 | 0.00 | 0.00 | 91 | 1009.4 |
| 20260506060552 | 24 | 180 | 9.7 | 19.3 | 0.00 | 0.00 | 0.00 | 91 | 1009.3 |
| 20260506051054 | 25 | 175 | 6.4 | 16.1 | 0.00 | 0.00 | 0.00 | 89 | 1009.6 |
| 20260506050552 | 25 | 179 | 8.0 | 17.7 | 0.00 | 0.00 | 0.00 | 89 | 1009.6 |
| 20260506045052 | 25 | 196 | 11.3 | 19.3 | 0.00 | 0.00 | 0.00 | 89 | 1009.6 |
| 20260506044702 | 25 | 202 | 8.0 | 17.7 | 0.00 | 0.00 | 0.00 | 89 | 1009.6 |
| 20260506044058 | 25 | 166 | 8.0 | 17.7 | 0.00 | 0.00 | 0.00 | 89 | 1009.6 |
| 20260506043553 | 25 | 194 | 6.4 | 16.1 | 0.00 | 0.00 | 0.00 | 89 | 1009.4 |
| 20260506043101 | 25 | 180 | 8.0 | 17.7 | 0.00 | 0.00 | 0.00 | 89 | 1009.4 |
| 20260506042552 | 25 | 180 | 8.0 | 17.7 | 0.00 | 0.00 | 0.00 | 88 | 1009.3 |
| 20260506042051 | 25 | 182 | 4.8 | 16.1 | 0.00 | 0.00 | 0.00 | 88 | 1009.3 |
| 20260506041603 | 25 | 164 | 6.4 | 16.1 | 0.00 | 0.00 | 0.00 | 88 | 1009.2 |
| 20260506041054 | 25 | 182 | 8.0 | 17.7 | 0.00 | 0.00 | 0.00 | 88 | 1009.3 |
| 20260506040557 | 25 | 187 | 6.4 | 17.7 | 0.00 | 0.00 | 0.00 | 88 | 1009.3 |
| 20260506040100 | 25 | 175 | 6.4 | 16.1 | 0.00 | 0.00 | 0.00 | 88 | 1009.3 |
| 20260506035555 | 25 | 176 | 6.4 | 12.9 | 0.00 | 0.00 | 0.00 | 88 | 1009.4 |
| 20260506035055 | 25 | 178 | 4.8 | 12.9 | 0.00 | 0.00 | 0.00 | 88 | 1009.5 |
| 20260506034629 | 25 | 182 | 3.2 | 14.5 | 0.00 | 0.00 | 0.00 | 88 | 1009.4 |
| 20260506034054 | 25 | 177 | 4.8 | 14.5 | 0.00 | 0.00 | 0.00 | 88 | 1009.3 |
| 20260506033555 | 25 | 155 | 3.2 | 12.9 | 0.00 | 0.00 | 0.00 | 88 | 1009.2 |
| 20260506033104 | 25 | 193 | 4.8 | 14.5 | 0.00 | 0.00 | 0.00 | 88 | 1009.2 |
| 20260506032554 | 25 | 198 | 6.4 | 14.5 | 0.00 | 0.00 | 0.00 | 88 | 1009.1 |
| 20260506032054 | 25 | 177 | 3.2 | 12.9 | 0.00 | 0.00 | 0.00 | 88 | 1009.0 |
| 20260506031606 | 25 | 183 | 3.2 | 12.9 | 0.00 | 0.00 | 0.00 | 87 | 1009.0 |
| 20260506031054 | 25 | 0 | 4.8 | 19.3 | 0.00 | 0.00 | 0.00 | 87 | 1008.9 |
| 20260506030553 | 25 | 175 | 3.2 | 19.3 | 0.00 | 0.00 | 0.00 | 87 | 1008.7 |
| 20260506030057 | 25 | 169 | 6.4 | 17.7 | 0.00 | 0.00 | 0.00 | 87 | 1008.7 |
| 20260506025553 | 25 | 178 | 3.2 | 14.5 | 0.00 | 0.00 | 0.00 | 87 | 1008.7 |
| 20260506025054 | 25 | 190 | 3.2 | 19.3 | 0.00 | 0.00 | 0.00 | 87 | 1008.7 |
| 20260506024558 | 25 | 178 | 6.4 | 19.3 | 0.00 | 0.00 | 0.00 | 87 | 1008.6 |
| 20260506024053 | 25 | 190 | 9.7 | 19.3 | 0.00 | 0.00 | 0.00 | 87 | 1008.4 |
| 20260506023553 | 25 | 199 | 11.3 | 19.3 | 0.00 | 0.00 | 0.00 | 87 | 1008.2 |
| 20260506023112 | 25 | 165 | 6.4 | 20.9 | 0.00 | 0.00 | 0.00 | 87 | 1008.3 |
| 20260506022552 | 25 | 205 | 6.4 | 20.9 | 0.00 | 0.00 | 0.00 | 87 | 1008.2 |
| 20260506022052 | 25 | 214 | 11.3 | 20.9 | 0.00 | 0.00 | 0.00 | 87 | 1008.2 |
| 20260506021556 | 25 | 178 | 9.7 | 20.9 | 0.00 | 0.00 | 0.00 | 87 | 1008.2 |
| 20260506021053 | 25 | 151 | 6.4 | 20.9 | 0.00 | 0.00 | 0.00 | 86 | 1008.0 |
| 20260506020553 | 25 | 192 | 8.0 | 19.3 | 0.00 | 0.00 | 0.00 | 86 | 1008.0 |
| 20260506020057 | 25 | 197 | 8.0 | 17.7 | 0.00 | 0.00 | 0.00 | 86 | 1007.9 |
| 20260506015552 | 25 | 169 | 8.0 | 20.9 | 0.00 | 0.00 | 0.00 | 86 | 1007.8 |
| 20260506015052 | 25 | 230 | 9.7 | 22.5 | 0.00 | 0.00 | 0.00 | 86 | 1007.7 |
| 20260506014554 | 25 | 184 | 9.7 | 22.5 | 0.00 | 0.00 | 0.00 | 86 | 1007.7 |
| 20260506014053 | 25 | 183 | 9.7 | 17.7 | 0.00 | 0.00 | 0.00 | 86 | 1007.7 |
| 20260506013552 | 26 | 185 | 3.2 | 17.7 | 0.00 | 0.00 | 0.00 | 86 | 1007.7 |
| 20260506013058 | 26 | 183 | 9.7 | 17.7 | 0.00 | 0.00 | 0.00 | 85 | 1007.5 |
| 20260506012553 | 26 | 206 | 8.0 | 20.9 | 0.00 | 0.00 | 0.00 | 85 | 1007.4 |
| 20260506012053 | 26 | 187 | 9.7 | 20.9 | 0.00 | 0.00 | 0.00 | 85 | 1007.4 |
| 20260506011614 | 26 | 153 | 8.0 | 17.7 | 0.00 | 0.00 | 0.00 | 85 | 1007.4 |
| 20260506011053 | 26 | 175 | 9.7 | 17.7 | 0.00 | 0.00 | 0.00 | 84 | 1007.3 |
| 20260506010553 | 26 | 210 | 8.0 | 17.7 | 0.00 | 0.00 | 0.00 | 84 | 1007.3 |
| 20260506005553 | 26 | 153 | 6.4 | 22.5 | 0.00 | 0.00 | 0.00 | 83 | 1007.2 |
| 20260506005052 | 26 | 208 | 9.7 | 22.5 | 0.00 | 0.00 | 0.00 | 83 | 1007.1 |
| 20260506004619 | 26 | 190 | 9.7 | 24.1 | 0.00 | 0.00 | 0.00 | 83 | 1006.9 |
| 20260506004052 | 26 | 190 | 11.3 | 25.7 | 0.00 | 0.00 | 0.00 | 83 | 1006.9 |
| 20260506003553 | 26 | 185 | 9.7 | 25.7 | 0.00 | 0.00 | 0.00 | 83 | 1007.0 |
| 20260506003110 | 26 | 165 | 11.3 | 19.3 | 0.00 | 0.00 | 0.00 | 82 | 1006.9 |
| 20260506002552 | 26 | 200 | 8.0 | 25.7 | 0.00 | 0.00 | 0.00 | 82 | 1006.9 |
| 20260506002052 | 26 | 159 | 11.3 | 25.7 | 0.00 | 0.00 | 0.00 | 82 | 1006.9 |
| 20260506001558 | 26 | 155 | 9.7 | 20.9 | 0.00 | 0.00 | 0.00 | 82 | 1006.9 |
| 20260506001052 | 27 | 173 | 9.7 | 20.9 | 0.00 | 0.00 | 0.00 | 81 | 1006.8 |
| 20260506000552 | 27 | 188 | 9.7 | 20.9 | 0.00 | 0.00 | 0.00 | 81 | 1006.9 |
| 20260506000057 | 27 | 190 | 8.0 | 22.5 | 0.00 | 0.00 | 0.00 | 81 | 1006.8 |
| 20260505235552 | 27 | 182 | 9.7 | 32.2 | 0.00 | 0.00 | 0.00 | 81 | 1006.7 |
| 20260505235052 | 27 | 165 | 11.3 | 33.8 | 0.00 | 0.00 | 0.00 | 81 | 1006.7 |
| 20260505234630 | 27 | 190 | 9.7 | 33.8 | 0.00 | 0.00 | 0.00 | 80 | 1006.7 |
| 20260505234052 | 27 | 219 | 9.7 | 24.1 | 0.00 | 0.00 | 0.00 | 80 | 1006.6 |
| 20260505233552 | 27 | 192 | 12.9 | 24.1 | 0.00 | 0.00 | 0.00 | 80 | 1006.6 |
| 20260505233053 | 27 | 153 | 11.3 | 22.5 | 0.00 | 0.00 | 0.00 | 80 | 1006.6 |
| 20260505232553 | 27 | 209 | 11.3 | 22.5 | 0.00 | 0.00 | 0.00 | 80 | 1006.7 |
| 20260505232053 | 27 | 178 | 11.3 | 30.6 | 0.00 | 0.00 | 0.00 | 79 | 1006.7 |
| 20260505231551 | 27 | 198 | 11.3 | 30.6 | 0.00 | 0.00 | 0.00 | 79 | 1006.6 |
| 20260505231055 | 27 | 183 | 11.3 | 22.5 | 0.00 | 0.00 | 0.00 | 78 | 1006.6 |
| 20260505230552 | 28 | 142 | 9.7 | 22.5 | 0.00 | 0.00 | 0.00 | 78 | 1006.5 |
| 20260505230054 | 28 | 181 | 11.3 | 20.9 | 0.00 | 0.00 | 0.00 | 78 | 1006.6 |
| 20260505225552 | 28 | 183 | 11.3 | 27.4 | 0.00 | 0.00 | 0.00 | 78 | 1006.6 |
| 20260505225053 | 28 | 162 | 9.7 | 27.4 | 0.00 | 0.00 | 0.00 | 78 | 1006.5 |
| 20260505224554 | 28 | 198 | 12.9 | 25.7 | 0.00 | 0.00 | 0.00 | 78 | 1006.5 |
| 20260505224053 | 28 | 196 | 11.3 | 25.7 | 0.00 | 0.00 | 0.00 | 77 | 1006.5 |
| 20260505223554 | 28 | 182 | 11.3 | 24.1 | 0.00 | 0.00 | 0.00 | 77 | 1006.6 |
| 20260505223053 | 28 | 194 | 12.9 | 32.2 | 0.00 | 0.00 | 0.00 | 77 | 1006.6 |
| 20260505222553 | 28 | 192 | 12.9 | 32.2 | 0.00 | 0.00 | 0.00 | 77 | 1006.6 |
| 20260505222053 | 28 | 195 | 16.1 | 32.2 | 0.00 | 0.00 | 0.00 | 77 | 1006.6 |
| 20260505221557 | 28 | 146 | 12.9 | 24.1 | 0.00 | 0.00 | 0.00 | 77 | 1006.6 |
| 20260505221051 | 28 | 172 | 16.1 | 29.0 | 0.00 | 0.00 | 0.00 | 76 | 1006.6 |
| 20260505220552 | 28 | 193 | 14.5 | 29.0 | 0.00 | 0.00 | 0.00 | 75 | 1006.6 |
| 20260505220105 | 28 | 215 | 14.5 | 25.7 | 0.00 | 0.00 | 0.00 | 75 | 1006.8 |
| 20260505215552 | 29 | 199 | 12.9 | 25.7 | 0.00 | 0.00 | 0.00 | 75 | 1006.8 |
| 20260505215052 | 29 | 195 | 12.9 | 37.0 | 0.00 | 0.00 | 0.00 | 75 | 1006.8 |
| 20260505214604 | 29 | 206 | 14.5 | 37.0 | 0.00 | 0.00 | 0.00 | 75 | 1006.7 |
| 20260505214052 | 29 | 184 | 12.9 | 30.6 | 0.00 | 0.00 | 0.00 | 75 | 1006.7 |
| 20260505213555 | 29 | 170 | 11.3 | 30.6 | 0.00 | 0.00 | 0.00 | 76 | 1006.9 |
| 20260505213128 | 29 | 184 | 16.1 | 30.6 | 0.00 | 0.00 | 0.00 | 75 | 1007.0 |
| 20260505212552 | 29 | 183 | 12.9 | 29.0 | 0.00 | 0.00 | 0.00 | 76 | 1007.2 |
| 20260505212052 | 29 | 174 | 17.7 | 33.8 | 0.00 | 0.00 | 0.00 | 75 | 1007.2 |
| 20260505211601 | 29 | 209 | 16.1 | 33.8 | 0.00 | 0.00 | 0.00 | 75 | 1007.2 |
| 20260505211055 | 29 | 196 | 19.3 | 29.0 | 0.00 | 0.00 | 0.00 | 75 | 1007.4 |
| 20260505210552 | 29 | 212 | 14.5 | 32.2 | 0.00 | 0.00 | 0.00 | 75 | 1007.4 |
| 20260505210054 | 29 | 173 | 17.7 | 32.2 | 0.00 | 0.00 | 0.00 | 76 | 1007.4 |
| 20260505205556 | 29 | 188 | 12.9 | 30.6 | 0.00 | 0.00 | 0.00 | 75 | 1007.5 |
| 20260505205053 | 29 | 189 | 12.9 | 30.6 | 0.00 | 0.00 | 0.00 | 74 | 1007.7 |
| 20260505204600 | 29 | 150 | 17.7 | 30.6 | 0.00 | 0.00 | 0.00 | 74 | 1007.7 |
| 20260505204052 | 29 | 176 | 12.9 | 27.4 | 0.00 | 0.00 | 0.00 | 74 | 1007.9 |
| 20260505203553 | 30 | 188 | 12.9 | 37.0 | 0.00 | 0.00 | 0.00 | 74 | 1008.0 |
| 20260505203058 | 30 | 209 | 12.9 | 37.0 | 0.00 | 0.00 | 0.00 | 75 | 1008.0 |
| 20260505202551 | 30 | 178 | 12.9 | 30.6 | 0.00 | 0.00 | 0.00 | 74 | 1008.1 |
| 20260505202053 | 30 | 192 | 14.5 | 30.6 | 0.00 | 0.00 | 0.00 | 75 | 1008.1 |
| 20260505201557 | 29 | 223 | 16.1 | 27.4 | 0.00 | 0.00 | 0.00 | 75 | 1008.1 |
| 20260505201052 | 29 | 204 | 11.3 | 29.0 | 0.00 | 0.00 | 0.00 | 75 | 1008.2 |
| 20260505200552 | 29 | 162 | 14.5 | 29.0 | 0.00 | 0.00 | 0.00 | 75 | 1008.2 |
| 20260505200054 | 29 | 182 | 14.5 | 27.4 | 0.00 | 0.00 | 0.00 | 76 | 1008.2 |
| 20260505195554 | 28 | 188 | 11.3 | 22.5 | 0.00 | 0.00 | 0.00 | 76 | 1008.3 |
| 20260505195053 | 28 | 168 | 11.3 | 27.4 | 0.00 | 0.00 | 0.00 | 76 | 1008.5 |
| 20260505194556 | 28 | 194 | 11.3 | 27.4 | 0.00 | 0.00 | 0.00 | 76 | 1008.5 |
| 20260505194053 | 28 | 215 | 14.5 | 25.7 | 0.00 | 0.00 | 0.00 | 75 | 1008.7 |
| 20260505193552 | 29 | 211 | 9.7 | 25.7 | 0.00 | 0.00 | 0.00 | 76 | 1008.6 |
| 20260505193058 | 29 | 199 | 12.9 | 29.0 | 0.00 | 0.00 | 0.00 | 76 | 1008.6 |
| 20260505192553 | 28 | 204 | 14.5 | 29.0 | 0.00 | 0.00 | 0.00 | 77 | 1008.7 |
| 20260505192052 | 28 | 219 | 14.5 | 27.4 | 0.00 | 0.00 | 0.00 | 77 | 1008.9 |
| 20260505191559 | 28 | 191 | 14.5 | 27.4 | 0.00 | 0.00 | 0.00 | 77 | 1008.8 |
| 20260505191052 | 28 | 208 | 17.7 | 25.7 | 0.00 | 0.00 | 0.00 | 77 | 1008.9 |
| 20260505190552 | 28 | 168 | 16.1 | 25.7 | 0.00 | 0.00 | 0.00 | 76 | 1009.0 |
| 20260505190057 | 28 | 198 | 12.9 | 27.4 | 0.00 | 0.00 | 0.00 | 77 | 1009.0 |